EW5697 Weather Reports


Display with metric or nautical units.
time (UTC)temp
F
wind
direction
speed
MPH
gust
MPH
rain 1hr
in
rain 24hr
in
rain mn
in
humidity
%
barometer
mb
20260508180008 63 25 0.0 0.0 0.00 0.00 0.00 56 1020.9
20260508174510 63 312 0.0 0.0 0.00 0.00 0.00 61 1020.8
20260508173003 61 312 0.0 0.0 0.00 0.00 0.00 64 1020.9
20260508171559 60 318 0.0 0.0 0.00 0.00 0.00 64 1021.1
20260508170058 59 335 0.0 0.0 0.00 0.00 0.00 67 1021.1
20260508164602 58 333 0.0 0.0 0.00 0.00 0.00 71 1021.1
20260508163051 57 8 0.0 0.0 0.00 0.00 0.00 75 1021.1
20260508161551 56 212 0.0 0.0 0.00 0.00 0.00 79 1021.0
20260508160048 55 212 0.0 0.0 0.00 0.00 0.00 83 1021.0
20260508154544 54 212 0.0 0.0 0.00 0.00 0.00 86 1020.8
20260508153042 52 212 0.0 0.0 0.00 0.00 0.00 90 1020.6
20260508151541 52 212 0.0 0.0 0.00 0.00 0.00 91 1020.5
20260508150042 52 212 0.0 0.0 0.00 0.00 0.00 91 1020.5
20260508144546 51 212 0.0 0.0 0.00 0.00 0.00 91 1020.5
20260508143035 52 212 0.0 0.0 0.00 0.00 0.00 90 1020.4
20260508141534 52 212 0.0 0.0 0.00 0.00 0.00 91 1020.4
20260508140031 52 212 0.0 0.0 0.00 0.00 0.00 91 1020.1
20260508134537 52 212 0.0 0.0 0.00 0.00 0.00 90 1019.8
20260508133034 53 212 0.0 0.0 0.00 0.00 0.00 91 1019.7
20260508131525 53 212 0.0 0.0 0.00 0.00 0.00 90 1019.4
20260508130023 53 212 0.0 0.0 0.00 0.00 0.00 90 1019.3
20260508124521 53 212 0.0 0.0 0.00 0.00 0.00 90 1019.1
20260508123021 53 212 0.0 0.0 0.00 0.00 0.00 90 1019.0
20260508121523 54 212 0.0 0.0 0.00 0.00 0.00 90 1019.0
20260508120017 54 212 0.0 0.0 0.00 0.00 0.00 89 1019.0
20260508114516 55 212 0.0 0.0 0.00 0.00 0.00 90 1019.0
20260508113015 55 173 0.0 0.0 0.00 0.00 0.00 89 1018.9
20260508111514 55 174 0.0 0.0 0.00 0.00 0.00 89 1018.9
20260508110025 55 180 0.0 0.0 0.00 0.00 0.00 89 1019.0
20260508104510 56 202 0.0 0.0 0.00 0.00 0.00 88 1019.0
20260508103009 56 202 0.0 0.0 0.00 0.00 0.00 88 1019.0
20260508101507 56 202 0.0 0.0 0.00 0.00 0.00 88 1019.0
20260508100006 57 207 0.0 0.0 0.00 0.00 0.00 88 1019.1
20260508094505 57 218 0.0 0.0 0.00 0.00 0.00 87 1019.2
20260508093003 57 176 0.0 0.0 0.00 0.00 0.00 87 1019.1
20260508091502 57 113 0.0 0.0 0.00 0.00 0.00 88 1019.0
20260508090113 57 202 0.0 0.0 0.00 0.00 0.00 87 1019.0
20260508084559 58 183 0.0 1.0 0.00 0.00 0.00 87 1018.9
20260508083058 58 136 0.0 0.0 0.00 0.00 0.00 86 1019.0
20260508081604 58 143 0.0 0.0 0.00 0.00 0.00 86 1019.1
20260508080055 58 218 0.0 0.0 0.00 0.00 0.00 86 1019.2
20260508074555 59 186 0.0 0.0 0.00 0.00 0.00 85 1019.3
20260508073103 59 175 0.0 0.0 0.00 0.00 0.00 85 1019.2
20260508071600 59 212 0.0 0.0 0.00 0.00 0.00 85 1019.3
20260508070049 59 193 0.0 0.0 0.00 0.00 0.00 84 1019.3
20260508064547 59 212 0.0 0.0 0.00 0.00 0.00 84 1019.3
20260508063047 59 197 0.0 0.0 0.00 0.00 0.00 83 1019.2
20260508061649 60 149 0.0 0.0 0.00 0.00 0.00 83 1019.2
20260508060047 60 160 0.0 0.0 0.00 0.00 0.00 82 1019.1
20260508054547 60 112 0.0 0.0 0.00 0.00 0.00 82 1019.0
20260508053112 60 174 0.0 0.0 0.00 0.00 0.00 81 1018.9
20260508051546 61 202 0.0 1.0 0.00 0.00 0.00 80 1018.8
20260508050044 61 178 0.0 0.0 0.00 0.00 0.00 78 1018.8
20260508044544 61 154 0.0 0.0 0.00 0.00 0.00 77 1018.7
20260508043043 61 197 0.0 0.0 0.00 0.00 0.00 75 1018.7
20260508041608 62 147 0.0 1.0 0.00 0.00 0.00 73 1018.5
20260508040101 62 207 0.0 4.0 0.00 0.00 0.00 72 1018.3
20260508034542 63 137 0.0 2.0 0.00 0.00 0.00 71 1018.0
20260508033041 63 192 0.0 8.0 0.00 0.00 0.00 69 1017.7
20260508031541 64 187 0.0 2.0 0.00 0.00 0.00 68 1017.5
20260508030040 65 139 0.0 0.0 0.00 0.00 0.00 68 1017.2
20260508024544 67 149 0.0 0.0 0.00 0.00 0.00 66 1017.0
20260508023038 69 101 0.0 6.0 0.00 0.00 0.00 62 1016.9
20260508021540 70 223 0.0 0.0 0.00 0.00 0.00 60 1016.9
20260508020044 72 176 0.0 1.0 0.00 0.00 0.00 57 1016.8
20260508014537 73 177 0.0 0.0 0.00 0.00 0.00 54 1016.8
20260508013036 75 193 0.0 2.0 0.00 0.00 0.00 53 1016.7
20260508011543 76 151 0.0 0.0 0.00 0.00 0.00 51 1016.8
20260508010034 76 137 0.0 0.0 0.00 0.00 0.00 48 1016.8
20260508004534 77 166 0.0 1.0 0.00 0.00 0.00 45 1016.8
20260508003037 78 118 0.0 0.0 0.00 0.00 0.00 42 1016.8
20260508001539 79 149 0.0 0.0 0.00 0.00 0.00 44 1016.7
20260508000034 79 187 0.0 0.0 0.00 0.00 0.00 42 1016.7
20260507234532 79 126 0.0 0.0 0.00 0.00 0.00 42 1016.6
20260507233052 79 259 0.0 0.0 0.00 0.00 0.00 43 1016.7
20260507231536 78 191 0.0 2.0 0.00 0.00 0.00 42 1016.8
20260507230029 79 140 0.0 0.0 0.00 0.00 0.00 44 1016.9
20260507224531 79 207 0.0 0.0 0.00 0.00 0.00 42 1017.0
20260507223028 79 140 0.0 1.0 0.00 0.00 0.00 42 1017.0
20260507221625 79 174 0.0 0.0 0.00 0.00 0.00 42 1017.2
20260507220025 79 233 0.0 1.0 0.00 0.00 0.00 42 1017.5
20260507214521 79 212 0.0 0.0 0.00 0.00 0.00 42 1017.6
20260507213022 78 229 0.0 0.0 0.00 0.00 0.00 45 1017.9
20260507211515 78 186 0.0 0.0 0.00 0.00 0.00 45 1018.1
20260507210011 76 202 0.0 0.0 0.00 0.00 0.00 50 1018.3
20260507204506 75 193 0.0 0.0 0.00 0.00 0.00 49 1018.4
20260507203104 74 202 0.0 0.0 0.00 0.00 0.00 49 1018.6
20260507201600 73 189 0.0 0.0 0.00 0.00 0.00 51 1018.6
20260507200057 72 212 0.0 0.0 0.00 0.00 0.00 53 1018.7
20260507194617 71 220 0.0 0.0 0.00 0.00 0.00 53 1018.9
20260507193048 70 227 0.0 0.0 0.00 0.00 0.00 56 1019.0
20260507191544 68 160 0.0 0.0 0.00 0.00 0.00 60 1019.1
20260507190048 67 250 0.0 1.0 0.00 0.00 0.00 63 1019.2
20260507184538 66 137 0.0 5.0 0.00 0.00 0.00 65 1019.3
20260507183042 65 113 0.0 1.0 0.00 0.00 0.00 65 1019.4
20260507181531 64 183 0.0 0.0 0.00 0.00 0.00 68 1019.4